Location: S�tio Afonso Gruber
(26.1760°S, 49.5250°W)
Time: 00:00:17
(UTC+00:00)

Intelsat 5-3 Rocket - Pass Details

Date: 07 October 2020
Orbit: 281 x 6111 km, 23.6° (Epoch: 22 October)

Event Time Altitude Azimuth Distance (km) Brightness Sun altitude
Rises 22:52:16 0° 316° (NW) 2,565 6.1 -20.8°
Reaches altitude 10° 22:54:00 10° 328° (NNW) 1,970 5.3 -21.1°
Enters shadow 22:57:53 32° 30° (NNE) 1,563 4.2 -22.0°
